[[{"header":{"parameterUnit":"m.s-1","parameterCategory":1,"la1":30.2991,"la2":30.254,"lo1":-89.0895,"lo2":-89.0444,"dy":0.0017,"dx":0.0017,"nx":28,"ny":28,"refTime":"2025-06-07T03:00:00:Z","depth":0,"parameterNumber":2,"parameterNumberName":"U-component_of_WINDS"},"data":[0,0,0,0,0,0,0,0,0,0,0,0,0,0,0,0,0,0,0,0,0,0,0,0,0,0,0,0,0,0,0,0,0,0,0,0,0,0,0,0,0,0,0,0,0,0,0,0,0,0,0,0,0,0,0,0,0,0,2.9542,2.9543,0,2.9611,2.9612,2.9612,2.965,2.965,2.965,2.965,2.9722,2.9724,2.9726,0,0,0,0,0,0,0,0,0,0,0,0,0,2.9448,2.945,2.9542,2.9543,2.9544,2.9611,2.9612,2.9613,2.965,2.965,2.965,2.965,2.9722,2.9724,2.9726,0,0,0,0,0,0,0,0,0,0,0,0,0,2.95,2.945,2.9542,2.9571,2.9574,2.961,2.9612,2.9613,2.965,2.965,2.965,2.965,2.9721,2.9724,2.9726,2.9741,0,0,2.9735,2.9736,0,0,0,0,0,0,0,0,2.9497,2.9504,2.9566,2.9569,2.9572,2.9622,2.9605,2.9656,2.9649,2.9621,2.965,2.965,2.9689,2.9694,2.9707,2.9744,2.9747,2.9735,2.9737,2.9738,2.9739,0,0,0,0,0,0,0,2.9494,2.9501,2.957,2.9566,2.9571,2.9581,2.9589,2.9615,2.9653,2.9623,2.9626,2.9634,2.9691,2.9704,2.9709,2.9748,2.9735,2.9737,2.9739,2.974,2.9804,2.9804,0,0,0,0,0,0,2.9485,2.9498,2.9567,2.9572,2.9534,2.9583,2.9591,2.9606,2.9653,2.966,2.9633,2.9635,2.9699,2.9706,2.9712,2.9733,2.9738,2.974,2.9742,2.9804,2.9804,2.9804,0,0,0,0,0,0,2.9483,2.9491,2.9565,2.9535,2.9546,2.9584,2.96,2.9607,2.962,2.9661,2.9668,2.964,2.97,2.9708,2.9734,2.9736,2.9742,2.9744,2.9804,2.9804,2.9804,2.9775,0,0,0,0,0,0,2.948,2.949,2.9494,2.9535,2.9547,2.9584,2.96,2.9608,2.9625,2.9628,2.9669,2.9676,2.97,2.9729,2.9736,2.974,2.9746,2.9804,2.9804,2.9804,2.9776,2.9774,2.9772,0,0,0,0,0,2.9476,2.9483,2.9494,2.9502,2.9553,2.9584,2.9591,2.9619,2.9625,2.9631,2.9657,2.9674,2.9735,2.9732,2.974,2.9744,2.9804,2.9804,2.9804,2.9776,2.9774,2.9772,0,0,0,0,0,0,2.9441,2.9489,2.9502,2.9522,2.9549,2.959,2.9598,2.9615,2.9641,2.9642,2.9677,2.9686,2.9709,2.973,2.9725,2.9762,2.9772,2.9773,2.9748,2.9746,2.9744,2.9738,2.9749,0,0,0,0,0,2.9436,2.9456,2.9497,2.9511,2.9523,2.9558,2.9573,2.9592,2.9622,2.9633,2.9662,2.969,2.9716,2.9732,2.9758,2.978,2.979,2.9787,2.9785,2.9784,2.9784,2.9799,2.9799,2.9805,2.9805,2.9805,0,0,2.9425,2.9453,2.9464,2.9504,2.9527,2.9549,2.9568,2.9589,2.9605,2.9637,2.9663,2.9685,2.972,2.9744,2.9756,2.9762,2.9786,2.9784,2.9782,2.9784,2.9799,2.9799,2.9798,2.9805,2.9805,2.9805,0,0,2.9415,2.9438,2.9453,2.9476,2.9511,2.9535,2.9539,2.9579,2.9595,2.9622,2.9646,2.9668,2.9711,2.9735,2.9753,2.9757,2.9774,2.9765,2.9755,2.9769,2.9769,2.9768,2.977,2.9771,2.9766,2.9766,2.9766,0,2.9396,2.9428,2.9458,2.9479,2.9497,2.9527,2.9543,2.9565,2.9607,2.9619,2.9625,2.9682,2.9707,2.9739,2.974,2.9753,2.976,2.9759,2.9766,2.9766,2.9766,2.9769,2.9769,2.9764,2.9764,2.9765,2.9765,0,2.9404,2.9427,2.9435,2.9474,2.9494,2.9512,2.9546,2.9563,2.9582,2.9606,2.9634,2.9667,2.97,2.971,2.9728,2.9745,2.9747,2.9759,2.9769,2.9764,2.9767,2.9768,2.9762,2.9763,2.9763,2.9763,0,0,2.9371,2.943,2.9432,2.9451,2.9494,2.9512,2.9534,2.9567,2.958,2.961,2.9629,2.9667,2.9679,2.9699,2.9722,2.9734,2.9736,2.9745,2.9746,2.9742,2.9758,2.9748,2.9749,2.9749,2.9749,2.975,2.9755,0,2.9367,2.9404,2.9434,2.9461,2.9483,2.9514,2.9533,2.9562,2.9586,2.961,2.9637,2.9663,2.9677,2.969,2.9704,2.9733,2.974,2.9733,2.9768,2.9769,2.9757,2.975,2.9739,2.9742,2.9757,2.9757,2.9757,0,2.9366,2.9394,2.9423,2.9466,2.9477,2.9493,2.9527,2.9549,2.9584,2.9601,2.9625,2.9649,2.9675,2.9683,2.9721,2.9715,2.9732,2.9749,2.975,2.9753,2.9762,2.9753,2.9744,2.9745,2.9759,2.9759,2.9759,0,2.9338,2.9384,2.9408,2.9424,2.9475,2.9486,2.9507,2.9543,2.9562,2.9593,2.9606,2.9639,2.9657,2.9684,2.9717,2.972,2.9751,2.9762,2.9767,2.9766,2.977,2.9769,2.9763,2.9782,2.9782,2.9782,2.9782,0,2.933,2.9346,2.9397,2.9411,2.9432,2.9468,2.9488,2.9513,2.9545,2.9566,2.9596,2.9616,2.9658,2.9684,2.971,2.9738,2.9746,2.9761,2.9768,2.9758,2.9756,2.9768,2.9769,2.9782,2.9782,2.9782,2.9782,0,2.9301,2.9335,2.9364,2.9411,2.9423,2.9436,2.9477,2.9494,2.9521,2.9548,2.9556,2.9599,2.9631,2.9667,2.9711,2.9729,2.9755,2.9765,2.9743,2.9746,2.9749,2.9748,2.975,2.9753,2.977,2.977,2.9769,0,2.9292,2.9306,2.9355,2.9372,2.9393,2.9419,2.9439,2.9476,2.9496,2.954,2.9551,2.9586,2.9615,2.9665,2.9701,2.9736,2.9747,2.9745,2.9752,2.9742,2.9747,2.9745,2.9747,2.9743,2.9742,2.9742,2.9742,0,2.9274,2.9291,2.9318,2.9352,2.9376,2.9404,2.9434,2.9447,2.9491,2.9512,2.9545,2.9568,2.9614,2.9649,2.9688,2.9713,2.9735,2.974,2.9743,2.9732,2.9718,2.9726,2.9737,2.9739,2.9739,2.9739,2.974,2.974,2.9255,2.9269,2.9307,2.9337,2.9364,2.9393,2.9411,2.9442,2.947,2.9509,2.9531,2.9564,2.9603,2.9659,2.9683,2.9711,2.9718,2.9722,2.9723,2.9723,2.9721,2.9715,2.9718,2.9719,2.9719,2.9719,2.9719,0,2.9237,2.9264,2.9292,2.9333,2.9358,2.9378,2.9414,2.9433,2.9462,2.9496,2.9525,2.9565,2.9599,2.9639,2.9677,2.9692,2.9703,2.97,2.9699,2.9705,2.9712,2.9706,2.9691,2.9691,2.9691,2.9691,2.9691,2.9691,2.9231,2.9257,2.9279,2.9321,2.9348,2.938,2.9399,2.9427,2.9454,2.9497,2.9526,2.9552,2.959,2.9631,2.9664,2.9676,2.9688,2.9682,2.9696,2.9702,2.9704,2.9706,2.97,2.9685,2.9685,2.9687,2.9687,2.9687]},{"header":{"parameterUnit":"m.s-1","parameterCategory":1,"la1":30.2991,"la2":30.254,"lo1":-89.0895,"lo2":-89.0444,"dy":0.0017,"dx":0.0017,"nx":28,"ny":28,"refTime":"2025-06-07T03:00:00:Z","depth":0,"parameterNumber":3,"parameterNumberName":"V-component_of_WINDS"},"data":[0,0,0,0,0,0,0,0,0,0,0,0,0,0,0,0,0,0,0,0,0,0,0,0,0,0,0,0,0,0,0,0,0,0,0,0,0,0,0,0,0,0,0,0,0,0,0,0,0,0,0,0,0,0,0,0,0,0,4.822,4.8221,0,4.8362,4.8364,4.8365,4.8399,4.8398,4.8397,4.8396,4.8533,4.8538,4.8542,0,0,0,0,0,0,0,0,0,0,0,0,0,4.7969,4.7973,4.8219,4.8221,4.8223,4.8362,4.8364,4.8366,4.8399,4.8398,4.8397,4.8396,4.8532,4.8537,4.8543,0,0,0,0,0,0,0,0,0,0,0,0,0,4.8091,4.7974,4.8219,4.8257,4.8262,4.8362,4.8364,4.8366,4.84,4.8398,4.8397,4.8395,4.853,4.8537,4.8543,4.8613,0,0,4.8564,4.8567,0,0,0,0,0,0,0,0,4.8084,4.81,4.8249,4.8254,4.826,4.8362,4.8326,4.8449,4.84,4.8347,4.8396,4.8395,4.8477,4.8488,4.8517,4.862,4.8626,4.8565,4.8569,4.8572,4.8574,0,0,0,0,0,0,0,4.8075,4.8094,4.8276,4.8251,4.8258,4.8264,4.828,4.8349,4.8418,4.8351,4.8354,4.8371,4.8479,4.8511,4.8521,4.8628,4.8565,4.8571,4.8575,4.8577,4.8795,4.8797,0,0,0,0,0,0,4.8061,4.8087,4.8271,4.828,4.8167,4.827,4.8287,4.833,4.8417,4.8429,4.8372,4.8372,4.85,4.8513,4.8526,4.8614,4.8572,4.8578,4.8582,4.8793,4.8795,4.8797,0,0,0,0,0,0,4.8056,4.8078,4.8265,4.8184,4.8209,4.8276,4.8323,4.8334,4.8365,4.8433,4.8444,4.8392,4.8499,4.8516,4.8592,4.8619,4.8581,4.8587,4.8791,4.8794,4.8796,4.8791,0,0,0,0,0,0,4.8049,4.8075,4.8104,4.8185,4.8213,4.8332,4.8325,4.8338,4.8378,4.8379,4.8455,4.8466,4.8499,4.8582,4.8599,4.8628,4.8593,4.8789,4.8792,4.8796,4.8789,4.8793,4.8796,0,0,0,0,0,4.8039,4.8095,4.8106,4.8128,4.8251,4.8333,4.8349,4.8389,4.838,4.8409,4.8452,4.8463,4.8614,4.8589,4.8609,4.864,4.8788,4.8792,4.8795,4.8787,4.8792,4.8796,0,0,0,0,0,0,4.8012,4.8106,4.8119,4.8203,4.826,4.8339,4.8376,4.8393,4.8452,4.845,4.8495,4.8511,4.8584,4.862,4.8591,4.8713,4.87,4.8708,4.8687,4.8692,4.8696,4.8686,4.8598,0,0,0,0,0,4.8017,4.8079,4.8156,4.8222,4.8251,4.8308,4.8346,4.8372,4.8432,4.8455,4.8504,4.856,4.862,4.8658,4.8717,4.8794,4.8811,4.8825,4.8829,4.8832,4.8838,4.8882,4.8889,4.881,4.881,4.881,0,0,4.8025,4.8084,4.8119,4.8218,4.8266,4.8326,4.8328,4.8392,4.8437,4.8464,4.854,4.8578,4.8642,4.872,4.8756,4.8751,4.8864,4.8837,4.8838,4.8843,4.8887,4.8894,4.8901,4.8813,4.8812,4.8812,0,0,4.8072,4.8123,4.8184,4.8233,4.8306,4.8345,4.8359,4.8436,4.8464,4.8541,4.8563,4.8616,4.8718,4.8764,4.88,4.8866,4.8878,4.8883,4.8902,4.8945,4.8951,4.8957,4.898,4.8988,4.8889,4.8889,4.8889,0,4.8072,4.8167,4.8213,4.8277,4.8319,4.835,4.8412,4.8455,4.8543,4.857,4.8564,4.8695,4.874,4.8829,4.8845,4.8874,4.8891,4.8875,4.8947,4.8953,4.8959,4.8982,4.8991,4.8889,4.8889,4.8889,4.8889,0,4.8164,4.823,4.827,4.8358,4.8405,4.8466,4.8519,4.8561,4.8583,4.8622,4.87,4.8756,4.8827,4.885,4.8871,4.8942,4.8937,4.8939,4.8927,4.8966,4.8989,4.8998,4.8889,4.8889,4.8889,4.8889,0,0,4.8196,4.8311,4.8324,4.8365,4.8449,4.85,4.8562,4.8636,4.867,4.8729,4.8782,4.8869,4.8872,4.8913,4.894,4.8977,4.9026,4.8974,4.8976,4.8982,4.9108,4.9106,4.9116,4.9035,4.9037,4.9038,4.9102,0,4.8253,4.8371,4.8414,4.8509,4.857,4.8601,4.8656,4.8712,4.875,4.8805,4.8845,4.8906,4.8905,4.893,4.8969,4.9012,4.9052,4.9008,4.9083,4.9085,4.9066,4.9128,4.9126,4.9184,4.9111,4.9113,4.9114,0,4.8335,4.84,4.8502,4.858,4.8607,4.8656,4.8727,4.878,4.8844,4.8869,4.8917,4.8941,4.9006,4.8991,4.9081,4.905,4.9083,4.9109,4.9112,4.912,4.9102,4.9138,4.9203,4.9212,4.9128,4.9127,4.9126,0,4.8348,4.846,4.8537,4.857,4.8663,4.8697,4.8737,4.88,4.8842,4.8903,4.893,4.8996,4.9032,4.9082,4.9123,4.9108,4.9209,4.9197,4.923,4.9229,4.925,4.9248,4.9322,4.9271,4.9271,4.9271,4.927,0,4.8407,4.8469,4.8545,4.8591,4.866,4.8709,4.8775,4.8816,4.8873,4.8926,4.8956,4.9005,4.9057,4.9112,4.9144,4.9214,4.9229,4.925,4.9258,4.9248,4.9245,4.927,4.9267,4.9273,4.9272,4.9272,4.9272,0,4.8434,4.8487,4.8572,4.8655,4.8677,4.8724,4.8794,4.8839,4.8879,4.8947,4.8965,4.9027,4.9094,4.914,4.9224,4.9246,4.9322,4.9329,4.9301,4.9305,4.9336,4.9333,4.9429,4.9444,4.9382,4.9382,4.9383,0,4.8468,4.8517,4.8606,4.8646,4.8687,4.875,4.8794,4.8843,4.8887,4.8965,4.9,4.907,4.9129,4.9233,4.9284,4.9349,4.9358,4.9387,4.9367,4.9356,4.9359,4.9356,4.9361,4.939,4.939,4.939,4.9391,0,4.8523,4.8548,4.8611,4.8685,4.8737,4.8796,4.8856,4.8886,4.8945,4.8992,4.9063,4.9109,4.9198,4.9266,4.9337,4.9374,4.9392,4.9397,4.9408,4.9398,4.9381,4.9391,4.931,4.9394,4.9394,4.9393,4.9393,4.9393,4.8554,4.86,4.867,4.874,4.8791,4.8846,4.8894,4.8942,4.9003,4.9081,4.9106,4.9179,4.9242,4.9339,4.9379,4.9435,4.9433,4.9449,4.9453,4.9456,4.9457,4.9372,4.9448,4.9448,4.9448,4.9448,4.9448,0,4.8611,4.8659,4.8723,4.8808,4.8863,4.8878,4.8945,4.8989,4.9055,4.9114,4.9172,4.9253,4.9321,4.9377,4.9446,4.9481,4.9491,4.9497,4.9495,4.9504,4.9454,4.9438,4.9488,4.9488,4.9488,4.9488,4.9488,4.9488,4.8647,4.8725,4.8759,4.8862,4.8908,4.8983,4.902,4.9071,4.9119,4.921,4.9267,4.9305,4.9363,4.9437,4.9499,4.9514,4.9538,4.9542,4.9559,4.9511,4.9507,4.9502,4.9488,4.9547,4.9547,4.9604,4.9604,4.9605]}]]